Skip Page Navigation
NASA JPL Caltech
NASA Logo - Jet Propulsion Laboratory + View the NASA Portal
+ Near-Earth Object (NEO) Program
Search JPL
JPL Home Earth Solar System Stars & Galaxies Technology
JPL Solar System Dynamics
BODIES ORBITS EPHEMERIDES TOOLS PHYSICAL DATA DISCOVERY FAQ SITE MAP
JPL Small-Body Database Browser
Search: [ help ]  
1608 Munoz (1951 RZ)
Classification: Main-belt Asteroid          SPK-ID: 2001608
Ephemeris | Orbit Diagram | Orbital Elements | Physical Parameters | Discovery Circumstances ]

[ show orbit diagram ]
Orbital Elements at Epoch 2456400.5 (2013-Apr-18.0) TDB
Reference: JPL 1 (heliocentric ecliptic J2000)
 Element Value Uncertainty (1-sigma)   Units 
e .1702307643786123 5.9797e-08  
a 2.213721015133286 6.0706e-09 AU
q 1.836877594606149 1.3262e-07 AU
i 3.944248528592444 6.5291e-06 deg
node 356.992465829192 8.2617e-05 deg
peri 316.1979804618675 8.4931e-05 deg
M 274.3544323577298 2.0123e-05 deg
tp 2456686.710228292276
(2014-Jan-29.21022829)
6.7614e-05 JED
period 1203.047455013497
3.29
4.9486e-06
1.355e-08
d
yr
n .2992400661335184 1.2309e-09 deg/d
Q 2.590564435660422 7.104e-09 AU
  Orbit Determination Parameters
   # obs. used (total)      1291  
   data-arc span      23546 days (64.47 yr)  
   first obs. used      1948-11-03  
   last obs. used      2013-04-22  
   planetary ephem.      DE405  
   SB-pert. ephem.      SB405-CPV-2  
   condition code      0  
   fit RMS      .54996  
   data source      ORB  
   producer      Otto Matic  
   solution date      2013-Apr-29 12:45:57  

Additional Information
 Earth MOID = .825394 AU 
 T_jup = 3.633 
[ show covariance matrix ]

Ephemeris | Orbit Diagram | Orbital Elements | Physical Parameters | Discovery Circumstances ]

Physical Parameter Table
Parameter Symbol Value Units Sigma Reference Notes
absolute magnitude H 12.9 mag n/a PDS3 (MPC 17262)  

1608 Munoz           Discovered 1951 Sept. 1 by M. Itzigsohn at La Plata.
Named in memory of F. A. Munoz, an assistant in the department of extra-meridian astronomy at the La Plata Observatory and involved for many years in computational and observational work on minor planets at La Plata; he also took an active part in site testing for the 2.15-m Argentine telescope.
NOTE: some special characters may not display properly (any characters within {} are an attempt to place the proper accent above a character)
Reference: MPC 5449Last Updated: 2006-03-21

Alternate Designations
 1951 RZ = 1951 RK1 = 1961 UD = 1974 HH1 
Ephemeris | Orbit Diagram | Orbital Elements | Physical Parameters | Discovery Circumstances ]
ABOUT SSD CREDITS/AWARDS PRIVACY/COPYRIGHT GLOSSARY LINKS
FirstGov 2013-May-21 17:38 UT
(server date/time)  
NASA Home Page
Site Manager:   Donald K. Yeomans
Webmaster  Alan B. Chamberlin